Previsão horária em Semyhory

Hoje, 25 Junho, Sexta-feira

Tempo Temperatura Precipitação Vento Pressão Humidade
00:00 +23°C° 0 mm 1 m/s 745 mmHg 75%
01:00 +23°C° 0 mm 1 m/s 745 mmHg 71%
02:00 +23°C° 0 mm 1 m/s 745 mmHg 68%
03:00 +23°C° 0 mm 1 m/s 745 mmHg 70%
04:00 +23°C° 0 mm 2 m/s 745 mmHg 72%
05:00 +21°C° 0 mm 2 m/s 745 mmHg 74%
06:00 +24°C° 0 mm 2 m/s 745 mmHg 73%
07:00 +26°C° 0 mm 2 m/s 745 mmHg 72%
08:00 +27°C° 0 mm 3 m/s 745 mmHg 71%
09:00 +28°C° 0 mm 3 m/s 745 mmHg 68%
10:00 +30°C° 0 mm 3 m/s 745 mmHg 64%
11:00 +31°C° 0 mm 3 m/s 745 mmHg 61%
12:00 +33°C° 0 mm 3 m/s 745 mmHg 58%
13:00 +33°C° 0 mm 3 m/s 745 mmHg 55%
14:00 +34°C° 0 mm 2 m/s 745 mmHg 52%
15:00 +33°C° 0 mm 3 m/s 744 mmHg 56%
16:00 +33°C° 0 mm 3 m/s 744 mmHg 60%
17:00 +33°C° 0 mm 3 m/s 743 mmHg 64%
18:00 +30°C° 0.1 mm 2 m/s 743 mmHg 68%
19:00 +28°C° 0.1 mm 1 m/s 743 mmHg 72%
20:00 +25°C° 0.1 mm 0 m/s 743 mmHg 77%
21:00 +26°C° 0 mm 1 m/s 743 mmHg 78%
22:00 +26°C° 0 mm 1 m/s 743 mmHg 79%
23:00 +25°C° 0 mm 1 m/s 743 mmHg 80%

Amanhã, 26 Junho, Sábado

Tempo Temperatura Precipitação Vento Pressão Humidade
00:00 +25°C° 0.1 mm 1 m/s 743 mmHg 82%
01:00 +24°C° 0.1 mm 1 m/s 743 mmHg 83%
02:00 +24°C° 0.1 mm 1 m/s 743 mmHg 85%
03:00 +23°C° 0.3 mm 1 m/s 743 mmHg 87%
04:00 +23°C° 0.3 mm 1 m/s 743 mmHg 88%
05:00 +23°C° 0.3 mm 2 m/s 743 mmHg 89%
06:00 +25°C° 0.1 mm 2 m/s 742 mmHg 85%
07:00 +26°C° 0.1 mm 2 m/s 742 mmHg 80%
08:00 +28°C° 0.1 mm 2 m/s 742 mmHg 75%
09:00 +29°C° 0.5 mm 2 m/s 743 mmHg 70%
10:00 +30°C° 0.5 mm 1 m/s 743 mmHg 64%
11:00 +31°C° 0.5 mm 1 m/s 743 mmHg 59%
12:00 +31°C° 0 mm 1 m/s 742 mmHg 57%
13:00 +32°C° 0 mm 1 m/s 742 mmHg 54%
14:00 +32°C° 0 mm 1 m/s 742 mmHg 52%
15:00 +32°C° 0 mm 1 m/s 742 mmHg 54%
16:00 +32°C° 0 mm 1 m/s 741 mmHg 57%
17:00 +31°C° 0 mm 1 m/s 741 mmHg 59%
18:00 +29°C° 0.2 mm 3 m/s 741 mmHg 67%
19:00 +26°C° 0.2 mm 4 m/s 741 mmHg 76%
20:00 +23°C° 0.2 mm 5 m/s 741 mmHg 84%
21:00 +22°C° 1.2 mm 4 m/s 741 mmHg 88%
22:00 +21°C° 1.2 mm 3 m/s 742 mmHg 92%
23:00 +19°C° 1.2 mm 2 m/s 742 mmHg 95%

Depois de amanhã, 27 Junho, Domingo

Tempo Temperatura Precipitação Vento Pressão Humidade
00:00 +19°C° 0 mm 2 m/s 742 mmHg 95%
01:00 +19°C° 0 mm 2 m/s 741 mmHg 95%
02:00 +19°C° 0 mm 3 m/s 741 mmHg 94%
03:00 +19°C° 0 mm 3 m/s 741 mmHg 95%
04:00 +19°C° 0 mm 3 m/s 741 mmHg 95%
05:00 +19°C° 0 mm 3 m/s 741 mmHg 95%
06:00 +20°C° 0 mm 3 m/s 742 mmHg 91%
07:00 +21°C° 0 mm 4 m/s 742 mmHg 87%
08:00 +22°C° 0 mm 4 m/s 742 mmHg 84%
09:00 +23°C° 0 mm 4 m/s 742 mmHg 79%
10:00 +25°C° 0 mm 4 m/s 742 mmHg 75%
11:00 +26°C° 0 mm 4 m/s 742 mmHg 70%
12:00 +27°C° 0 mm 4 m/s 742 mmHg 68%
13:00 +27°C° 0 mm 4 m/s 742 mmHg 67%
14:00 +28°C° 0 mm 4 m/s 742 mmHg 65%
15:00 +27°C° 0.1 mm 4 m/s 742 mmHg 68%
16:00 +27°C° 0.1 mm 5 m/s 741 mmHg 72%
17:00 +27°C° 0.1 mm 5 m/s 741 mmHg 75%
18:00 +25°C° 0.3 mm 5 m/s 741 mmHg 80%
19:00 +23°C° 0.3 mm 5 m/s 741 mmHg 84%
20:00 +22°C° 0.3 mm 4 m/s 741 mmHg 89%
21:00 +21°C° 0.9 mm 4 m/s 741 mmHg 91%
22:00 +20°C° 0.9 mm 5 m/s 741 mmHg 93%
23:00 +20°C° 0.9 mm 5 m/s 742 mmHg 95%

28 Junho, Segunda-feira

Tempo Temperatura Precipitação Vento Pressão Humidade
00:00 +20°C° 1.1 mm 5 m/s 742 mmHg 95%
01:00 +19°C° 1.1 mm 5 m/s 742 mmHg 95%
02:00 +19°C° 1.1 mm 5 m/s 742 mmHg 95%
03:00 +19°C° 0.1 mm 5 m/s 742 mmHg 95%
04:00 +19°C° 0.1 mm 5 m/s 742 mmHg 95%
05:00 +19°C° 0.1 mm 4 m/s 742 mmHg 95%
06:00 +20°C° 0 mm 5 m/s 742 mmHg 92%
07:00 +20°C° 0 mm 5 m/s 743 mmHg 88%
08:00 +21°C° 0 mm 5 m/s 743 mmHg 84%
09:00 +22°C° 0 mm 5 m/s 743 mmHg 78%
10:00 +23°C° 0 mm 6 m/s 743 mmHg 72%
11:00 +26°C° 0 mm 6 m/s 743 mmHg 66%
12:00 +26°C° 0.2 mm 6 m/s 743 mmHg 65%
13:00 +26°C° 0.2 mm 5 m/s 743 mmHg 65%
14:00 +26°C° 0.2 mm 5 m/s 743 mmHg 64%
15:00 +26°C° 0 mm 5 m/s 743 mmHg 64%
16:00 +26°C° 0 mm 5 m/s 743 mmHg 65%
17:00 +26°C° 0 mm 4 m/s 743 mmHg 65%
18:00 +23°C° 0 mm 4 m/s 743 mmHg 69%
19:00 +22°C° 0 mm 4 m/s 743 mmHg 74%
20:00 +20°C° 0 mm 4 m/s 743 mmHg 78%
21:00 +20°C° 0 mm 3 m/s 743 mmHg 76%
22:00 +20°C° 0 mm 3 m/s 743 mmHg 75%
23:00 +19°C° 0 mm 3 m/s 743 mmHg 74%

29 Junho, Terça-feira

Tempo Temperatura Precipitação Vento Pressão Humidade
00:00 +19°C° 0 mm 3 m/s 743 mmHg 76%
01:00 +18°C° 0 mm 3 m/s 743 mmHg 78%
02:00 +18°C° 0 mm 3 m/s 743 mmHg 79%
03:00 +17°C° 0 mm 3 m/s 743 mmHg 82%
04:00 +17°C° 0 mm 3 m/s 743 mmHg 84%
05:00 +16°C° 0 mm 3 m/s 743 mmHg 86%
06:00 +18°C° 0 mm 3 m/s 744 mmHg 81%
07:00 +19°C° 0 mm 3 m/s 744 mmHg 76%
08:00 +21°C° 0 mm 4 m/s 744 mmHg 71%
09:00 +22°C° 0 mm 4 m/s 744 mmHg 67%
10:00 +23°C° 0 mm 4 m/s 744 mmHg 62%
11:00 +25°C° 0 mm 4 m/s 743 mmHg 57%
12:00 +25°C° 0 mm 4 m/s 743 mmHg 57%
13:00 +25°C° 0 mm 4 m/s 743 mmHg 57%
14:00 +26°C° 0 mm 4 m/s 743 mmHg 57%
15:00 +25°C° 0.2 mm 4 m/s 743 mmHg 62%
16:00 +23°C° 0.2 mm 4 m/s 743 mmHg 67%
17:00 +24°C° 0.2 mm 3 m/s 743 mmHg 72%
18:00 +21°C° 0.5 mm 3 m/s 743 mmHg 76%
19:00 +20°C° 0.5 mm 3 m/s 743 mmHg 81%
20:00 +18°C° 0.5 mm 3 m/s 743 mmHg 86%
21:00 +18°C° 0 mm 3 m/s 743 mmHg 87%
22:00 +17°C° 0 mm 2 m/s 743 mmHg 88%
23:00 +17°C° 0 mm 2 m/s 743 mmHg 89%

30 Junho, Quarta-feira

Tempo Temperatura Precipitação Vento Pressão Humidade
00:00 +17°C° 0 mm 2 m/s 743 mmHg 89%
01:00 +17°C° 0 mm 2 m/s 743 mmHg 88%
02:00 +17°C° 0 mm 2 m/s 743 mmHg 88%
03:00 +17°C° 0 mm 2 m/s 743 mmHg 89%
04:00 +17°C° 0 mm 2 m/s 743 mmHg 90%
05:00 +17°C° 0 mm 2 m/s 743 mmHg 90%
06:00 +18°C° 0 mm 2 m/s 743 mmHg 85%
07:00 +20°C° 0 mm 2 m/s 743 mmHg 80%
08:00 +23°C° 0 mm 2 m/s 744 mmHg 75%
09:00 +24°C° 0 mm 2 m/s 744 mmHg 69%
10:00 +25°C° 0 mm 2 m/s 744 mmHg 63%
11:00 +27°C° 0 mm 2 m/s 744 mmHg 57%
12:00 +27°C° 0 mm 3 m/s 743 mmHg 55%
13:00 +28°C° 0 mm 3 m/s 743 mmHg 53%
14:00 +28°C° 0 mm 3 m/s 743 mmHg 50%
15:00 +28°C° 0 mm 3 m/s 743 mmHg 54%
16:00 +28°C° 0 mm 2 m/s 743 mmHg 57%
17:00 +28°C° 0 mm 2 m/s 743 mmHg 60%
18:00 +26°C° 0 mm 2 m/s 743 mmHg 65%
19:00 +25°C° 0 mm 2 m/s 742 mmHg 69%
20:00 +22°C° 0 mm 3 m/s 742 mmHg 74%
21:00 +21°C° 0 mm 3 m/s 742 mmHg 74%
22:00 +20°C° 0 mm 3 m/s 742 mmHg 73%
23:00 +20°C° 0 mm 3 m/s 742 mmHg 73%
Mostrar mais

Necessitamos do seu Consentimento

A Meteoprog e os seus Fornecedores de Serviços podem armazenar e aceder a dados pessoais como cookies, identificadores do dispositivo ou outras tecnologias semelhantes existentes no seu dispositivo e processar estes dados para personalizar conteúdos e anúncios, assim como funcionalidades nas redes sociais e análise de tráfego.

  • Armazenar e/ou aceder a informações no seu dispositivo

    Os cookies, identificadores do dispositivo ou outras informações podem ser armazenados ou acedidos no seu dispositivo, para os fins acima indicados.

  • Anúncios e conteúdos personalizados, medição de anúncios e conteúdos, dados sobre o público-alvo e desenvolvimento de produtos

    Os anúncios e os conteúdos podem ser personalizados com base num perfil. Podem ser adicionados dados adicionais para uma maior personalização dos anúncios e dos conteúdos. A eficácia dos anúncios e dos conteúdos pode ser medida. Podem ser obtidas informações sobre o público que visualizou os anúncios e os conteúdos. Estes dados podem ser usados para desenvolver ou melhorar sistemas, softwares ou a experiência do utilizador.

Ao clicar em "Eu concordo”, permitirá o uso de cookies, identificadores do dispositivo e web beacons mencionados ou outras tecnologias semelhantes. As configurações do navegador do seu dispositivo podem ser alteradas.

Para certos fins, podem ser invocados interesses legítimos ao invés de consentimento. Pode ler mais informação sobre este assunto na nossa Política de Privacidade e Cookies.